Time,TemperatureF,DewpointF,PressureIn,WindDirection,WindDirectionDegrees,WindSpeedMPH,WindSpeedGustMPH,Humidity,HourlyPrecipIn,Conditions,Clouds,dailyrainin,SoftwareType,DateUTC
2013-07-29 00:33:00,72.0,-99.9,29.96,SSE,149,-999.0,-999.0,-999,0.02,,,-99.99,,2013-07-29 04:33:00,
2013-07-29 00:43:00,72.0,-99.9,29.96,SSE,149,-999.0,-999.0,-999,0.02,,,-99.99,,2013-07-29 04:43:00,
2013-07-29 00:53:00,71.0,-99.9,29.96,SSE,149,-999.0,-999.0,-999,-99.99,,,-99.99,,2013-07-29 04:53:00,
2013-07-29 01:43:00,71.0,-99.9,29.96,SSE,149,-999.0,-999.0,-999,-99.99,,,-99.99,,2013-07-29 05:43:00,
2013-07-29 02:33:00,70.0,-99.9,29.96,SSE,149,-999.0,-999.0,-999,0.00,,,-99.99,,2013-07-29 06:33:00,
2013-07-29 02:43:00,70.0,-99.9,29.96,SSE,149,-999.0,-999.0,-999,0.00,,,-99.99,,2013-07-29 06:43:00,
2013-07-29 02:52:00,70.0,-99.9,29.96,SSE,149,-999.0,-999.0,-999,0.00,,,-99.99,,2013-07-29 06:52:00,
2013-07-29 02:53:00,70.0,-99.9,29.95,SSE,149,-999.0,-999.0,-999,0.00,,,-99.99,,2013-07-29 06:53:00,
2013-07-29 03:33:00,70.0,-99.9,29.95,SSE,149,-999.0,-999.0,-999,0.00,,,-99.99,,2013-07-29 07:33:00,
2013-07-29 03:43:00,70.0,-99.9,29.95,SSE,149,-999.0,-999.0,-999,0.00,,,-99.99,,2013-07-29 07:43:00,
2013-07-29 04:33:00,69.0,-99.9,29.97,SSE,149,-999.0,-999.0,-999,0.00,,,-99.99,,2013-07-29 08:33:00,
2013-07-29 04:43:00,69.0,-99.9,29.97,SSE,149,-999.0,-999.0,-999,0.00,,,-99.99,,2013-07-29 08:43:00,
2013-07-29 04:52:00,69.0,-99.9,29.97,SSE,149,-999.0,-999.0,-999,0.00,,,-99.99,,2013-07-29 08:52:00,
2013-07-29 04:53:00,69.0,-99.9,29.96,SSE,149,-999.0,-999.0,-999,0.00,,,-99.99,,2013-07-29 08:53:00,
2013-07-29 05:33:00,69.0,-99.9,29.96,SSE,149,-999.0,-999.0,-999,0.00,,,-99.99,,2013-07-29 09:33:00,
2013-07-29 05:43:00,69.0,-99.9,29.96,SSE,149,-999.0,-999.0,-999,0.00,,,-99.99,,2013-07-29 09:43:00,
2013-07-29 05:53:00,68.0,-99.9,29.96,SSE,149,-999.0,-999.0,-999,0.01,,,-99.99,,2013-07-29 09:53:00,
2013-07-29 06:40:00,68.0,-99.9,29.96,SSE,149,-999.0,-999.0,-999,0.01,,,-99.99,,2013-07-29 10:40:00,
2013-07-29 06:50:00,68.0,-99.9,29.96,SSE,149,-999.0,-999.0,-999,0.01,,,-99.99,,2013-07-29 10:50:00,
2013-07-29 07:38:00,68.0,-99.9,29.99,SSE,149,-999.0,-999.0,-999,0.00,,,-99.99,,2013-07-29 11:38:00,
2013-07-29 07:49:00,68.0,-99.9,29.99,SSE,149,-999.0,-999.0,-999,0.00,,,-99.99,,2013-07-29 11:49:00,
2013-07-29 07:53:00,69.0,-99.9,30.00,SSE,149,-999.0,-999.0,-999,0.00,,,-99.99,,2013-07-29 11:53:00,
2013-07-29 08:49:00,69.0,-99.9,30.00,SSE,149,-999.0,-999.0,-999,0.00,,,-99.99,,2013-07-29 12:49:00,
2013-07-29 08:53:00,72.0,-99.9,30.02,East,79,-999.0,4.0,-999,0.00,,,-99.99,,2013-07-29 12:53:00,
2013-07-29 09:53:00,76.0,-99.9,30.02,ENE,69,-999.0,6.0,-999,0.00,,,-99.99,,2013-07-29 13:53:00,
2013-07-29 10:48:00,76.0,-99.9,30.02,ENE,69,-999.0,6.0,-999,0.00,,,-99.99,,2013-07-29 14:48:00,
2013-07-29 11:39:00,78.0,-99.9,30.03,SSW,203,-999.0,5.0,-999,0.00,,,-99.99,,2013-07-29 15:39:00,
2013-07-29 11:47:00,78.0,-99.9,30.03,SSW,203,-999.0,5.0,-999,0.00,,,-99.99,,2013-07-29 15:47:00,
2013-07-29 11:53:00,80.0,-99.9,30.02,West,272,3.0,-999.0,-999,0.00,,,-99.99,,2013-07-29 15:53:00,
2013-07-29 12:42:00,80.0,-99.9,30.02,West,272,3.0,-999.0,-999,0.00,,,-99.99,,2013-07-29 16:42:00,
2013-07-29 12:49:00,80.0,-99.9,30.02,West,272,3.0,-999.0,-999,0.00,,,-99.99,,2013-07-29 16:49:00,
2013-07-29 12:53:00,81.0,-99.9,30.01,WSW,252,-999.0,5.0,-999,0.00,,,-99.99,,2013-07-29 16:53:00,
2013-07-29 13:43:00,81.0,-99.9,30.01,WSW,252,-999.0,5.0,-999,0.00,,,-99.99,,2013-07-29 17:43:00,
2013-07-29 13:53:00,83.0,-99.9,30.00,ESE,110,6.0,7.0,-999,0.00,,,-99.99,,2013-07-29 17:53:00,
2013-07-29 14:39:00,83.0,-99.9,30.00,ESE,110,6.0,7.0,-999,0.00,,,-99.99,,2013-07-29 18:39:00,
2013-07-29 14:48:00,83.0,-99.9,30.00,ESE,110,6.0,7.0,-999,0.00,,,-99.99,,2013-07-29 18:48:00,
2013-07-29 14:53:00,84.0,-99.9,30.00,SSW,196,3.0,8.0,-999,0.00,,,-99.99,,2013-07-29 18:53:00,
2013-07-29 15:40:00,84.0,-99.9,30.00,SSW,196,3.0,8.0,-999,0.00,,,-99.99,,2013-07-29 19:40:00,
2013-07-29 15:48:00,84.0,-99.9,30.00,SSW,196,3.0,8.0,-999,0.00,,,-99.99,,2013-07-29 19:48:00,
2013-07-29 15:53:00,83.0,-99.9,30.00,NW,318,5.0,13.0,-999,0.00,,,-99.99,,2013-07-29 19:53:00,
2013-07-29 16:49:00,83.0,-99.9,30.00,NW,318,5.0,13.0,-999,0.00,,,-99.99,,2013-07-29 20:49:00,
2013-07-29 16:53:00,83.0,-99.9,30.01,West,259,5.0,9.0,-999,0.00,,,-99.99,,2013-07-29 20:53:00,
2013-07-29 17:38:00,83.0,-99.9,30.01,West,259,5.0,9.0,-999,0.00,,,-99.99,,2013-07-29 21:38:00,
2013-07-29 17:50:00,83.0,-99.9,30.01,West,259,5.0,9.0,-999,0.00,,,-99.99,,2013-07-29 21:50:00,
2013-07-29 17:53:00,81.0,-99.9,30.01,South,176,-999.0,9.0,-999,0.00,,,-99.99,,2013-07-29 21:53:00,
2013-07-29 18:39:00,81.0,-99.9,30.01,South,176,-999.0,9.0,-999,0.00,,,-99.99,,2013-07-29 22:39:00,
2013-07-29 18:48:00,81.0,-99.9,30.01,South,176,-999.0,9.0,-999,0.00,,,-99.99,,2013-07-29 22:48:00,
2013-07-29 18:53:00,79.0,-99.9,30.02,WSW,255,5.0,5.0,-999,0.00,,,-99.99,,2013-07-29 22:53:00,
2013-07-29 19:36:00,79.0,-99.9,30.02,WSW,255,5.0,5.0,-999,0.00,,,-99.99,,2013-07-29 23:36:00,
2013-07-29 19:49:00,79.0,-99.9,30.02,WSW,255,5.0,5.0,-999,0.00,,,-99.99,,2013-07-29 23:49:00,
2013-07-29 19:53:00,77.0,-99.9,30.04,West,272,4.0,5.0,-999,0.00,,,-99.99,,2013-07-29 23:53:00,
2013-07-29 20:35:00,77.0,-99.9,30.04,West,272,4.0,5.0,-999,0.00,,,-99.99,,2013-07-30 00:35:00,
2013-07-29 20:52:00,77.0,-99.9,30.04,West,272,4.0,5.0,-999,0.00,,,-99.99,,2013-07-30 00:52:00,
2013-07-29 20:53:00,74.0,-99.9,30.06,West,268,-999.0,5.0,-999,0.00,,,-99.99,,2013-07-30 00:53:00,
2013-07-29 21:47:00,74.0,-99.9,30.06,West,268,-999.0,5.0,-999,0.00,,,-99.99,,2013-07-30 01:47:00,
2013-07-29 22:47:00,72.0,-99.9,30.08,WNW,291,-999.0,6.0,-999,0.00,,,-99.99,,2013-07-30 02:47:00,
2013-07-29 22:53:00,70.0,-99.9,30.09,WNW,295,-999.0,5.0,-999,0.00,,,-99.99,,2013-07-30 02:53:00,
2013-07-29 23:36:00,70.0,-99.9,30.09,WNW,295,-999.0,5.0,-999,0.00,,,-99.99,,2013-07-30 03:36:00,
2013-07-29 23:53:00,69.0,-99.9,30.09,WNW,299,-999.0,-999.0,-999,0.00,,,-99.99,,2013-07-30 03:53:00,